Weather reports worldwide

Advertisment
Charlwood, United Kingdom (3769): temperature & dewpoint: 17.10.2020 01:00:00 - 23.10.2020 01:00:00 (BST)Charlwood, United Kingdom (3769): temperature -20cm & temperature -100cm: 17.10.2020 01:00:00 - 23.10.2020 01:00:00 (BST)Charlwood, United Kingdom (3769): wind speed & gusts: 17.10.2020 01:00:00 - 23.10.2020 01:00:00 (BST)Charlwood, United Kingdom (3769): wind direction: 17.10.2020 01:00:00 - 23.10.2020 01:00:00 (BST)Charlwood, United Kingdom (3769): reduced air pressure: 17.10.2020 01:00:00 - 23.10.2020 01:00:00 (BST)Charlwood, United Kingdom (3769): visibility: 17.10.2020 01:00:00 - 23.10.2020 01:00:00 (BST)Charlwood, United Kingdom (3769): sunshine duration: 17.10.2020 01:00:00 - 23.10.2020 01:00:00 (BST)Charlwood, United Kingdom (3769): precipitation: 17.10.2020 01:00:00 - 23.10.2020 01:00:00 (BST)
Date & Time tt [°C] td [°C] tt -20cm [°C] tt -100cm [°C] ff [km/h] ff [kn] fx [km/h] fx [kn] dd ppp [hPa] vv [km] sd [min] rr [mm]
23.10.2020 01:00:00 6,9 6,7 - - 2 1 - - SW 1010,5 0,5 - 0,0
23.10.2020 00:00:00 7,3 7,0 - - 2 1 - - WSW 1010,6 7 0 0,0
22.10.2020 23:00:00 7,4 7,0 - - 4 2 - - SW 1010,7 1,3 0 0,0
22.10.2020 22:00:00 8,9 8,5 - - 4 2 - - SW 1010,9 9 0 0,0
22.10.2020 21:00:00 10,1 9,5 - - 4 2 - - SW 1010,8 10 0 0,0
22.10.2020 20:00:00 11,0 10,0 - - 5 3 - - WSW 1010,5 16 0 0,0
22.10.2020 19:00:00 11,7 9,6 - - 8 4 - - SW 1010,3 22 0 0,0
22.10.2020 18:00:00 13,6 9,7 - - 9 5 - - WSW 1009,6 30 0 0,0
22.10.2020 17:00:00 15,2 9,6 - - 11 6 - - WSW 1009,3 35 6 0,0
22.10.2020 16:00:00 16,0 9,5 - - 15 8 - - WSW 1009,0 40 48 0,0
22.10.2020 15:00:00 17,0 10,5 - - 16 9 - - WSW 1008,6 30 60 0,0
22.10.2020 14:00:00 17,2 10,2 - - 15 8 - - WSW 1008,6 40 60 0,0
22.10.2020 13:00:00 16,0 10,6 - - 16 9 - - WSW 1008,7 30 42 0,0
22.10.2020 12:00:00 16,1 12,1 - - 15 8 - - WSW 1008,8 35 42 0,0
22.10.2020 11:00:00 15,0 11,7 - - 15 8 - - SW 1008,5 18 18 0,0
22.10.2020 10:00:00 13,5 11,5 13,2 13,4 11 6 - - SW 1008,5 18 6 0,0
22.10.2020 09:00:00 12,8 10,8 - - 11 6 - - SW 1008,0 20 0 0,0
22.10.2020 08:00:00 11,6 10,2 - - 9 5 - - SW 1007,3 16 0 0,0
22.10.2020 07:00:00 12,1 10,4 - - 11 6 - - SW 1006,7 18 0 0,0
22.10.2020 06:00:00 12,0 10,4 - - 11 6 - - SW 1006,4 16 0 0,0
22.10.2020 05:00:00 12,0 10,3 - - 11 6 - - SW 1006,1 17 0 0,0
22.10.2020 04:00:00 11,9 10,3 - - 11 6 - - SW 1005,8 15 0 0,0
22.10.2020 03:00:00 12,4 10,5 - - 11 6 - - WSW 1005,8 18 0 0,0
22.10.2020 02:00:00 12,9 10,6 - - 15 8 - - WSW 1005,3 16 0 0,0
22.10.2020 01:00:00 12,9 10,5 - - 16 9 - - SW 1004,9 17 - 0,0
22.10.2020 00:00:00 12,3 10,3 - - 15 8 - - SW 1004,4 18 0 0,0
21.10.2020 23:00:00 12,7 10,2 - - 13 7 - - WSW 1004,3 20 0 0,0
21.10.2020 22:00:00 13,9 12,6 - - 15 8 - - WSW 1003,2 26 0 0,0
21.10.2020 21:00:00 14,0 12,8 - - 13 7 - - SW 1002,4 35 0 0,0
21.10.2020 20:00:00 14,0 12,7 - - 13 7 - - SW 1002,0 29 0 0,0
21.10.2020 19:00:00 13,7 12,4 - - 8 4 - - SSW 1001,0 35 0 0,0
21.10.2020 18:00:00 14,3 12,5 - - 13 7 - - WSW 1000,0 50 0 0,0
21.10.2020 17:00:00 14,6 13,0 - - 15 8 - - WSW 998,6 50 0 0,0
21.10.2020 16:00:00 14,7 12,7 - - 22 12 - - W 996,6 50 6 0,0
21.10.2020 15:00:00 16,0 14,9 - - 11 6 - - WSW 993,7 45 0 0,0
21.10.2020 14:00:00 15,3 14,9 - - 11 6 - - SW 992,8 9 0 0,2
21.10.2020 13:00:00 15,1 14,7 - - 15 8 - - SW 992,2 14 0 0,2
21.10.2020 12:00:00 14,9 14,6 - - 13 7 - - SW 990,8 6 0 2,0
21.10.2020 11:00:00 14,6 14,4 - - 11 6 - - SSW 990,5 3,3 0 3,2
21.10.2020 10:00:00 14,1 13,8 13,0 13,4 9 5 - - S 991,0 4,6 0 1,4
21.10.2020 09:00:00 13,8 13,6 - - 11 6 - - S 992,1 4,6 0 1,4
21.10.2020 08:00:00 13,7 13,5 - - 11 6 - - SSE 992,9 4,0 0 1,8
21.10.2020 07:00:00 13,8 13,5 - - 8 4 - - ESE 993,8 4,9 0 1,4
21.10.2020 06:00:00 14,0 13,7 - - 9 5 - - ESE 995,1 10 0 1,2
21.10.2020 05:00:00 14,2 13,8 - - 8 4 - - SE 996,1 10 0 0,6
21.10.2020 04:00:00 14,4 13,8 - - 9 5 - - SSE 997,2 10 0 0,4
21.10.2020 03:00:00 14,6 13,7 - - 8 4 - - SSE 998,3 10 0 0,2
21.10.2020 02:00:00 15,1 13,4 - - 9 5 - - SSE 999,1 19 0 0,0
21.10.2020 01:00:00 15,1 13,4 - - 9 5 - - SSE 999,7 19 - 0,0
21.10.2020 00:00:00 15,1 13,2 - - 13 7 - - SSE 1000,1 18 0 0,0
20.10.2020 23:00:00 15,3 13,1 - - 13 7 - - S 1000,4 21 0 0,0
20.10.2020 22:00:00 15,2 13,2 - - 13 7 - - S 1000,4 22 0 0,0
20.10.2020 21:00:00 15,1 12,9 - - 11 6 - - S 1001,1 17 0 0,0
20.10.2020 20:00:00 15,2 13,1 - - 9 5 - - S 1000,9 18 0 0,0
20.10.2020 19:00:00 14,2 12,7 - - 5 3 - - S 1001,2 12 0 0,0
20.10.2020 18:00:00 15,1 13,0 - - 13 7 - - SSW 1001,1 18 0 0,0
20.10.2020 17:00:00 15,8 12,8 - - 13 7 - - SSW 1001,3 21 18 0,0
20.10.2020 16:00:00 16,5 12,7 - - 21 11 - - SW 1001,7 20 0 0,0
20.10.2020 15:00:00 16,9 12,9 - - 18 10 - - SSW 1001,6 30 12 0,0
20.10.2020 14:00:00 17,0 13,3 - - 22 12 - - SW 1001,6 27 6 0,0
20.10.2020 13:00:00 17,0 13,3 - - 21 11 46 25 WSW 1002,0 22 0 0,0
20.10.2020 12:00:00 16,6 13,1 - - 26 14 - - SW 1002,0 22 18 0,0
20.10.2020 11:00:00 16,4 13,3 - - 18 10 - - WSW 1001,8 17 0 0,0
20.10.2020 10:00:00 15,5 13,1 12,5 13,5 16 9 - - SW 1001,7 16 0 0,0
20.10.2020 09:00:00 14,7 12,5 - - 13 7 - - SW 1001,8 19 0 0,0
20.10.2020 08:00:00 13,8 12,1 - - 11 6 - - SSW 1001,5 19 0 0,0
20.10.2020 07:00:00 13,1 12,0 - - 9 5 - - S 1001,4 17 0 0,2
20.10.2020 06:00:00 12,8 12,3 - - 13 7 - - S 1001,5 6 0 0,4
20.10.2020 05:00:00 12,5 11,9 - - 9 5 - - S 1002,0 10 0 0,4
20.10.2020 04:00:00 11,6 10,3 - - 5 3 - - SE 1002,4 10 0 0,0
20.10.2020 03:00:00 11,5 9,3 - - 9 5 - - SSE 1003,3 19 0 0,0
20.10.2020 02:00:00 11,0 8,0 - - 8 4 - - S 1004,7 15 0 0,0
20.10.2020 01:00:00 11,3 7,7 - - 11 6 - - SSE 1004,8 28 - 0,0
20.10.2020 00:00:00 11,6 7,2 - - 11 6 - - SSE 1005,9 27 0 0,0
19.10.2020 23:00:00 11,9 6,8 - - 15 8 - - SSE 1006,4 40 0 0,0
19.10.2020 22:00:00 11,9 6,6 - - 15 8 - - SE 1007,5 45 0 0,0
19.10.2020 21:00:00 12,1 6,7 - - 16 9 - - SE 1008,2 40 0 0,0
19.10.2020 20:00:00 12,2 6,0 - - 16 9 - - SE 1009,2 50 0 0,0
19.10.2020 19:00:00 12,0 6,4 - - 13 7 - - SE 1010,1 45 0 0,0
19.10.2020 18:00:00 12,0 6,9 - - 11 6 - - SE 1011,0 45 0 0,0
19.10.2020 17:00:00 12,6 6,4 - - 15 8 - - SSE 1011,8 45 0 0,0
19.10.2020 16:00:00 13,3 6,4 - - 21 11 - - SSE 1012,6 35 18 0,0
19.10.2020 15:00:00 14,2 6,4 - - 18 10 - - SSE 1013,9 40 42 0,0
19.10.2020 14:00:00 14,5 6,2 - - 21 11 - - SSW 1014,8 50 60 0,0
19.10.2020 13:00:00 14,7 5,4 - - 22 12 46 25 S 1015,9 45 60 0,0
19.10.2020 12:00:00 14,5 7,6 - - 18 10 - - S 1016,8 40 24 0,0
19.10.2020 11:00:00 13,2 8,7 - - 15 8 - - S 1017,6 28 6 0,0
19.10.2020 10:00:00 11,7 9,8 12,5 13,5 5 3 - - SSE 1017,8 12 0 0,0
19.10.2020 09:00:00 8,4 8,4 - - 2 1 - - ESE 1018,3 7 0 0,0
19.10.2020 08:00:00 7,4 7,4 - - 2 1 - - N 1018,5 4,8 0 0,0
19.10.2020 07:00:00 6,6 6,4 - - 2 1 - - NE 1019,2 1,9 0 0,0
19.10.2020 06:00:00 7,6 7,5 - - 2 1 - - NE 1019,6 7 0 0,0
19.10.2020 05:00:00 6,6 6,5 - - 2 1 - - N 1020,2 4,8 0 0,0
19.10.2020 04:00:00 6,8 6,2 - - 0 0 - - N 1020,4 1,4 0 0,0
19.10.2020 03:00:00 8,1 7,6 - - 2 1 - - SW 1021,1 9 0 0,0
19.10.2020 02:00:00 8,4 7,8 - - 0 0 - - N 1021,7 11 0 0,0
19.10.2020 01:00:00 8,6 8,0 - - 0 0 - - N 1022,2 14 - 0,0
19.10.2020 00:00:00 8,7 8,0 - - 4 2 - - WSW 1022,4 19 0 0,0
18.10.2020 23:00:00 8,6 7,9 - - 0 0 - - N 1022,6 25 0 0,0
18.10.2020 22:00:00 8,7 7,9 - - 0 0 - - N 1022,9 20 0 0,0
18.10.2020 21:00:00 9,0 8,1 - - 2 1 - - WSW 1022,9 21 0 0,0
18.10.2020 20:00:00 9,4 8,3 - - 0 0 - - N 1023,2 29 0 0,0
18.10.2020 19:00:00 10,0 8,3 - - 0 0 - - N 1023,2 40 0 0,0
18.10.2020 18:00:00 10,8 8,4 - - 4 2 - - W 1022,8 40 0 0,0
18.10.2020 17:00:00 11,9 7,6 - - 2 1 - - WNW 1022,7 45 0 0,0
18.10.2020 16:00:00 12,6 6,2 - - 2 1 - - NNE 1022,8 27 0 0,0
18.10.2020 15:00:00 12,9 6,2 - - 2 1 - - N 1023,2 45 0 0,0
18.10.2020 14:00:00 12,1 8,6 - - 2 1 - - E 1023,6 15 0 0,0
18.10.2020 13:00:00 11,9 8,5 - - 2 1 - - E 1024,3 11 0 0,0
18.10.2020 12:00:00 10,8 9,5 - - 2 1 - - ESE 1024,7 7 0 0,0
18.10.2020 11:00:00 9,3 9,2 - - 4 2 - - NNE 1024,7 5 0 0,0
18.10.2020 10:00:00 8,4 8,4 12,5 13,7 2 1 - - W 1024,7 3,5 0 0,0
18.10.2020 09:00:00 7,3 7,3 - - 5 3 - - W 1024,6 0,7 0 0,0
18.10.2020 08:00:00 5,4 5,4 - - 4 2 - - WSW 1023,9 2,9 0 0,0
18.10.2020 07:00:00 3,9 3,6 - - 4 2 - - E 1023,4 3,5 0 0,0
18.10.2020 06:00:00 4,4 3,9 - - 2 1 - - NNW 1023,2 5 0 0,0
18.10.2020 05:00:00 5,4 4,6 - - 4 2 - - W 1023,2 7 0 0,0
18.10.2020 04:00:00 7,2 5,7 - - 4 2 - - W 1023,3 16 0 0,0
18.10.2020 03:00:00 7,8 5,9 - - 2 1 - - ESE 1023,4 35 0 0,0
18.10.2020 02:00:00 8,5 5,9 - - 2 1 - - N 1023,6 40 0 0,0
18.10.2020 01:00:00 9,0 5,8 - - 4 2 - - NW 1023,5 35 - 0,0
18.10.2020 00:00:00 8,9 6,1 - - 5 3 - - WNW 1023,5 45 0 0,0
17.10.2020 23:00:00 8,2 6,1 - - 2 1 - - N 1023,3 35 0 0,0
17.10.2020 22:00:00 9,4 6,5 - - 4 2 - - ENE 1023,1 30 0 0,0
17.10.2020 21:00:00 9,7 6,6 - - 2 1 - - WNW 1022,9 45 0 0,0
17.10.2020 20:00:00 10,0 6,8 - - 2 1 - - NNW 1022,8 45 0 0,0
17.10.2020 19:00:00 10,5 6,6 - - 5 3 - - NNE 1022,5 45 0 0,0
17.10.2020 18:00:00 11,0 7,4 - - 2 1 - - N 1021,7 45 0 0,0
17.10.2020 17:00:00 11,5 7,0 - - 4 2 - - N 1021,5 50 0 0,0
17.10.2020 16:00:00 11,8 7,0 - - 5 3 - - N 1021,7 45 0 0,0
17.10.2020 15:00:00 12,2 7,1 - - 5 3 - - NNE 1021,6 40 0 0,0
17.10.2020 14:00:00 12,2 7,6 - - 9 5 - - NE 1021,6 30 18 0,0
17.10.2020 13:00:00 11,8 8,3 - - 9 5 - - NE 1022,0 23 0 0,0
17.10.2020 12:00:00 11,3 8,1 - - 8 4 - - NE 1022,3 40 0 0,0
17.10.2020 11:00:00 10,5 8,3 - - 8 4 - - NE 1022,3 35 0 0,0
17.10.2020 10:00:00 9,8 8,7 12,2 13,7 5 3 - - NE 1022,3 24 0 0,0
17.10.2020 09:00:00 9,3 8,8 - - 4 2 - - NNE 1022,2 12 0 0,2
17.10.2020 08:00:00 9,0 8,6 - - 5 3 - - NNE 1021,9 7 0 0,0
17.10.2020 07:00:00 8,7 8,1 - - 2 1 - - ENE 1021,8 10 0 0,0
17.10.2020 06:00:00 9,0 8,5 - - 5 3 - - NNE 1021,9 12 0 0,0
17.10.2020 05:00:00 9,2 8,7 - - 4 2 - - NNE 1021,9 8 0 0,0
17.10.2020 04:00:00 9,4 8,7 - - 4 2 - - N 1022,0 10 0 0,0
17.10.2020 03:00:00 9,3 8,2 - - 4 2 - - NNE 1022,3 22 0 0,0
17.10.2020 02:00:00 9,6 8,4 - - 5 3 - - NE 1022,6 23 0 0,0
17.10.2020 01:00:00 9,3 7,6 - - 4 2 - - N 1022,7 27 - 0,0

tt = temperature
td = dewpoint
tt -20cm = temperature -20cm
tt -100cm = temperature -100cm
ff = wind speed
fx = gusts
dd = wind direction
ppp = reduced air pressure
vv = visibility
sd = sunshine duration
rr = precipitation

Next stations